STARLINK-5377 (56141 NORAD) Tracking and Keplerian Element Data

This shows tracking and keplerian element data for the satellite.

Feedback or suggestion? Click here.




ElementValue
Catalog56141
NameSTARLINK-5377
Epoch Orbit656
Epoch Day127.25001157
Epoch Year2023
RAAN33.6727
Inclination43.0017
Eccentricity0.000142
Argument of Perigee266.5754
Mean Anonmoly1.2186
Mean Motion15.4887843
Decay Rate0.00073201
L11 56141U 23046BB 23127.25001157 .00073201 00000+0 13188-2 0 9993
L22 56141 43.0017 33.6727 0001420 266.5754 1.2186 15.48878430 6567



Live tracking and technical data element details for STARLINK-5377 (NORAD 56141). STARLINK-5377 can be tracked NOW for your location showing map with azimuth and elevation plus other details from your city location.







IsCatalogInMostPopularTable: catalog: 56141, numindb: 3
Update: records affected: 1



GetName: 56141 STARLINK-5377

Hit Count: updated at: Sun, 04 Jun 2023 23:08:12 GMT